COSMOS 1275 DEB, 42226

Orbit data source: Space-Track

COSMOS 1275 DEB, 42226 is space debris in LEO originally from a launch on Thu, 04 Jun 1981 UTC launched from the Plesetsk Missile And Space Complex (PKMTR). Debris objects in space refer to the collection of defunct objects orbiting the Earth. Examples of debris include non-operational satellites, rocket bodies, and fragments generated from explosions, collisions, or faulty payload assembly.

Loading next visibility...
Identifier
42226, 1981-053US
Orbit
LEO
Country
Flag of CISCIS
Related business
Manufacturer
Unknown
Mission
Spacecraft
Bus & Motor
Unknown
Mass
Unknown
Launch date (UTC)
1981-06-04 (44 years ago)
Launch vehicle
Unknown
Launch site
Plesetsk Missile And Space Complex (PKMTR)
Object type
Payload
Rocket body
Debris
Shape & HBR
Unknown shape, 0.1 m
Radar Cross Section
Small (<0.1 m²)

Expand to show TLE details & history
Last TLE update: 5 days ago

TLE from 5 days ago
0 COSMOS 1275 DEB
1 42226U 81053US  25288.97774166  .00001293  00000-0  14242-2 0  9995
2 42226  82.9565  23.6916 0111522 138.8313 222.1321 13.68660917593972
Epoch: 2025-10-15T23:27Z
TLE epoch observation values (Epoch: 2025-10-15T23:27:56.879Z)
Latitude
0.00004°
Longitude
6.96054°
Altitude
1,068.751 km
Speed
7.287 km/s
True Right ascension
01h 34m 45s
True Declination
0° 00' 00"
Sunlit
Object was in full shadow at epoch
Visualization orbit readout
Latitude
Unknown
Longitude
Unknown
Altitude
Unknown
Speed
Unknown
Apparent Right ascension
Unknown
Apparent Declination
Unknown
Sunlit
N/A
Visualization observer readout
Local Sidereal Time
21:42:56
Azimuth
Unknown
Elevation
Unknown
Doppler factor
Unknown
Orbital elements
Apogee altitude
1,083.839 km
Perigee altitude
919.239 km
Semi-major axis
7,379.676 km
Eccentricity
0.01115
Inclination
82.9565°
RAAN
23.6916°
Arg. of periapsis
138.8313°
True anomaly
221.28361°
Mean anomaly
222.1321°
Eccentric anomaly
221.70698°
Mean motion
3.42363 °/min
Orbital period
105.15 mins
BSTAR
0.0014242
Loading maneuver chart data...
Computing Atmospheric mass density...

Documentation

Showing up to 5 results
|